STARLINK-30236, 57300

Orbit data source: Space-Track

STARLINK-30236, 57300 is a payload satellite owned by SpaceX/Seattle (US) in LEO that was launched on Mon, 10 Jul 2023 UTC via an FALCON 9 launch vehicle from the Air Force Eastern Test Range (AFETR). Payload-class satellites include a variety of spacecraft equipped with specific instruments for various scientific and technological missions. These include communications satellites like Starlink; space stations such as the ISS; scientific satellites like the Hubble; Earth observation satellites from companies like Planet Labs, Umbra, and HawkEye 360; GPS; miniature CubeSats for education and research; and military/defense satellites.

Loading next visibility...
Identifier
57300, 2023-096L
Orbit
LEO
Country
Flag of USUS
Related business
Manufacturer
SpaceX/Seattle
Mission
Operational Commercial Communications
Bus & Motor
STARLINK V2M, Unknown motor
Mass
730 kg wet, ~700 kg dry
Launch date (UTC)
2023-07-10 (3 years ago)
Launch vehicle
FALCON 9
Launch site
Air Force Eastern Test Range (AFETR)
Object type
Payload
Rocket body
Debris
Shape & HBR
Box + 2 Pan, 17.7 m
Radar Cross Section
33.884 m², Large (>1 m²)

Expand to show TLE details & history
Last TLE update: 8 hours ago

TLE from 8 hours ago
0 STARLINK-30236
1 57300U 23096L   26236.58336806  .00657777  00000-0  12100-1 0  9997
2 57300  43.0003 353.2856 0001875 296.6187  85.6006 15.46342655  5864
Epoch: 2026-08-24T14:00Z
TLE epoch observation values (Epoch: 2026-08-24T14:00:03.000Z)
Latitude
14.99309°
Longitude
-172.99517°
Altitude
426.396 km
Speed
7.659 km/s
True Right ascension
00h 39m 31s
True Declination
14° 54' 12"
Sunlit
Object was in full shadow at epoch
Visualization orbit readout
Latitude
Unknown
Longitude
Unknown
Altitude
Unknown
Speed
Unknown
Apparent Right ascension
Unknown
Apparent Declination
Unknown
Sunlit
N/A
Visualization observer readout
Local Sidereal Time
13:31:19
Azimuth
Unknown
Elevation
Unknown
Doppler factor
Unknown
Orbital elements
Apogee altitude
430.673 km
Perigee altitude
428.12 km
Semi-major axis
6,807.534 km
Eccentricity
0.00019
Inclination
43.0003°
RAAN
353.2856°
Arg. of periapsis
296.6187°
True anomaly
85.62202°
Mean anomaly
85.6006°
Eccentric anomaly
85.61131°
Mean motion
3.86419 °/min
Orbital period
93.16 mins
BSTAR
0.0121
Loading maneuver chart data...
Computing Atmospheric mass density...

Documentation

Showing up to 5 results
|